Location: ??????
(41.3164°N, 22.6615°E)
Time: 15:59:26
(UTC+00:00)

CANX-2 - Pass Details

Date: 11 August 2022
Orbit: 591 x 608 km, 97.7° (Epoch: 01 October)

Event Time Altitude Azimuth Distance (km) Brightness Sun altitude
Rises 01:29:04 0° 25° (NNE) 2,847 ? -20.5°
Reaches altitude 10° 01:31:31 10° 38° (NE) 1,943 ? -20.2°
Maximum altitude 01:35:05 26° 95° (E) 1,184 ? -19.7°
Drops below altitude 10° 01:38:39 10° 153° (SSE) 1,939 ? -19.2°
Enters shadow 01:39:05 - 156° (SSE) 2,090 ? -19.1°
